| time (UTC) | temp F | wind direction | speed MPH | gust MPH | rain 1hr in | rain 24hr in | rain mn in | humidity % | barometer mb |
| 20260507231530 | 63 | 294 | 5.0 | 7.0 | 0.00 | 0.00 | 0.00 | 42 | 1010.8 |
| 20260507231027 | 63 | 266 | 2.0 | 6.0 | 0.00 | 0.00 | 0.00 | 41 | 1010.8 |
| 20260507230524 | 63 | 301 | 7.0 | 9.0 | 0.00 | 0.00 | 0.00 | 41 | 1010.7 |
| 20260507230021 | 63 | 257 | 7.0 | 8.0 | 0.00 | 0.00 | 0.00 | 42 | 1010.7 |
| 20260507225515 | 63 | 267 | 8.0 | 9.0 | 0.00 | 0.00 | 0.00 | 41 | 1010.6 |
| 20260507225012 | 64 | 261 | 8.0 | 9.0 | 0.00 | 0.00 | 0.00 | 47 | 1010.6 |
| 20260507224508 | 65 | 256 | 5.0 | 6.0 | 0.00 | 0.00 | 0.00 | 51 | 1010.5 |
| 20260507224004 | 66 | 272 | 3.0 | 7.0 | 0.00 | 0.00 | 0.00 | 52 | 1010.3 |
| 20260507223500 | 66 | 121 | 1.0 | 2.0 | 0.00 | 0.00 | 0.00 | 56 | 1010.4 |
| 20260507222958 | 65 | 336 | 2.0 | 3.0 | 0.00 | 0.00 | 0.00 | 57 | 1010.3 |
| 20260507222455 | 66 | 90 | 1.0 | 2.0 | 0.00 | 0.00 | 0.00 | 57 | 1010.2 |
| 20260507221951 | 65 | 104 | 1.0 | 3.0 | 0.00 | 0.00 | 0.00 | 60 | 1010.1 |
| 20260507221448 | 65 | 121 | 1.0 | 4.0 | 0.00 | 0.00 | 0.00 | 60 | 1010.1 |
| 20260507220944 | 65 | 119 | 2.0 | 3.0 | 0.00 | 0.00 | 0.00 | 59 | 1010.1 |
| 20260507220442 | 65 | 105 | 2.0 | 4.0 | 0.00 | 0.00 | 0.00 | 59 | 1010.1 |
| 20260507215938 | 66 | 30 | 1.0 | 2.0 | 0.00 | 0.00 | 0.00 | 55 | 1009.8 |
| 20260507215435 | 66 | 118 | 2.0 | 4.0 | 0.00 | 0.00 | 0.00 | 56 | 1009.8 |
| 20260507214932 | 66 | 150 | 4.0 | 6.0 | 0.00 | 0.00 | 0.00 | 55 | 1009.8 |
| 20260507214430 | 65 | 136 | 2.0 | 6.0 | 0.00 | 0.00 | 0.00 | 62 | 1009.9 |
| 20260507213925 | 65 | 158 | 3.0 | 6.0 | 0.00 | 0.00 | 0.00 | 62 | 1009.9 |
| 20260507213422 | 64 | 151 | 2.0 | 3.0 | 0.00 | 0.00 | 0.00 | 66 | 1010.1 |
| 20260507212919 | 64 | 112 | 1.0 | 2.0 | 0.00 | 0.00 | 0.00 | 63 | 1009.9 |
| 20260507212415 | 63 | 138 | 3.0 | 3.0 | 0.00 | 0.00 | 0.00 | 66 | 1009.8 |
| 20260507211912 | 65 | 105 | 3.0 | 6.0 | 0.00 | 0.00 | 0.00 | 62 | 1009.8 |
| 20260507211408 | 66 | 101 | 1.0 | 3.0 | 0.00 | 0.00 | 0.00 | 61 | 1009.7 |
| 20260507210905 | 66 | 84 | 1.0 | 2.0 | 0.00 | 0.00 | 0.00 | 60 | 1009.7 |
| 20260507210402 | 66 | 127 | 2.0 | 3.0 | 0.00 | 0.00 | 0.00 | 60 | 1009.7 |
| 20260507205859 | 65 | 113 | 1.0 | 2.0 | 0.00 | 0.00 | 0.00 | 62 | 1009.7 |
| 20260507205356 | 65 | 142 | 3.0 | 6.0 | 0.00 | 0.00 | 0.00 | 60 | 1009.9 |
| 20260507204852 | 63 | 149 | 1.0 | 2.0 | 0.00 | 0.00 | 0.00 | 65 | 1009.7 |
| 20260507204349 | 63 | 120 | 2.0 | 3.0 | 0.00 | 0.00 | 0.00 | 62 | 1009.7 |
| 20260507203847 | 62 | 112 | 3.0 | 7.0 | 0.00 | 0.00 | 0.00 | 65 | 1009.7 |
| 20260507203344 | 63 | 168 | 2.0 | 9.0 | 0.00 | 0.00 | 0.00 | 63 | 1009.6 |
| 20260507202840 | 63 | 149 | 7.0 | 13.0 | 0.00 | 0.00 | 0.00 | 63 | 1009.8 |
| 20260507202337 | 63 | 146 | 3.0 | 10.0 | 0.00 | 0.00 | 0.00 | 65 | 1009.9 |
| 20260507201832 | 63 | 150 | 6.0 | 9.0 | 0.00 | 0.00 | 0.00 | 62 | 1009.9 |
| 20260507201328 | 64 | 153 | 9.0 | 10.0 | 0.00 | 0.00 | 0.00 | 64 | 1009.9 |
| 20260507200825 | 64 | 143 | 4.0 | 4.0 | 0.00 | 0.00 | 0.00 | 63 | 1009.9 |
| 20260507200321 | 63 | 163 | 3.0 | 6.0 | 0.00 | 0.00 | 0.00 | 63 | 1009.9 |
| 20260507195817 | 63 | 159 | 6.0 | 11.0 | 0.00 | 0.00 | 0.00 | 63 | 1010.1 |
| 20260507195314 | 64 | 157 | 9.0 | 10.0 | 0.00 | 0.00 | 0.00 | 62 | 1010.2 |
| 20260507194812 | 64 | 111 | 9.0 | 11.0 | 0.00 | 0.00 | 0.00 | 65 | 1010.1 |
| 20260507194308 | 65 | 115 | 11.0 | 15.0 | 0.00 | 0.00 | 0.00 | 60 | 1010.3 |
| 20260507193804 | 63 | 97 | 2.0 | 4.0 | 0.00 | 0.00 | 0.00 | 64 | 1010.2 |
| 20260507193301 | 64 | 143 | 4.0 | 11.0 | 0.00 | 0.00 | 0.00 | 60 | 1010.3 |
| 20260507192757 | 62 | 110 | 7.0 | 9.0 | 0.00 | 0.00 | 0.00 | 64 | 1010.3 |
| 20260507192254 | 62 | 92 | 1.0 | 4.0 | 0.00 | 0.00 | 0.00 | 64 | 1010.6 |
| 20260507191750 | 62 | 103 | 2.0 | 8.0 | 0.00 | 0.00 | 0.00 | 65 | 1010.7 |
| 20260507191247 | 63 | 146 | 9.0 | 13.0 | 0.00 | 0.00 | 0.00 | 65 | 1010.6 |
| 20260507190744 | 62 | 155 | 6.0 | 13.0 | 0.00 | 0.00 | 0.00 | 66 | 1010.6 |
| 20260507190243 | 63 | 7 | 2.0 | 8.0 | 0.00 | 0.00 | 0.00 | 64 | 1010.7 |
| 20260507185741 | 64 | 168 | 9.0 | 10.0 | 0.00 | 0.00 | 0.00 | 63 | 1010.7 |
| 20260507185237 | 63 | 145 | 7.0 | 11.0 | 0.00 | 0.00 | 0.00 | 65 | 1010.8 |
| 20260507184735 | 61 | 98 | 4.0 | 6.0 | 0.00 | 0.00 | 0.00 | 67 | 1010.8 |
| 20260507184233 | 61 | 53 | 2.0 | 2.0 | 0.00 | 0.00 | 0.00 | 64 | 1010.8 |
| 20260507183729 | 61 | 106 | 4.0 | 7.0 | 0.00 | 0.00 | 0.00 | 65 | 1010.8 |
| 20260507183226 | 61 | 127 | 4.0 | 9.0 | 0.00 | 0.00 | 0.00 | 65 | 1010.9 |
| 20260507182723 | 59 | 130 | 9.0 | 10.0 | 0.00 | 0.00 | 0.00 | 72 | 1011.0 |
| 20260507182218 | 59 | 100 | 5.0 | 8.0 | 0.00 | 0.00 | 0.00 | 67 | 1011.0 |
| 20260507181715 | 61 | 144 | 1.0 | 2.0 | 0.00 | 0.00 | 0.00 | 61 | 1010.9 |
| 20260507181212 | 60 | 136 | 4.0 | 14.0 | 0.00 | 0.00 | 0.00 | 65 | 1011.0 |
| 20260507180709 | 59 | 108 | 4.0 | 8.0 | 0.00 | 0.00 | 0.00 | 65 | 1011.1 |
| 20260507180206 | 60 | 107 | 2.0 | 3.0 | 0.00 | 0.00 | 0.00 | 64 | 1011.3 |
| 20260507175701 | 61 | 148 | 5.0 | 7.0 | 0.00 | 0.00 | 0.00 | 63 | 1011.2 |
| 20260507175158 | 61 | 163 | 5.0 | 7.0 | 0.00 | 0.00 | 0.00 | 63 | 1011.4 |
| 20260507174655 | 60 | 139 | 4.0 | 7.0 | 0.00 | 0.00 | 0.00 | 64 | 1011.4 |
| 20260507174154 | 59 | 104 | 2.0 | 2.0 | 0.00 | 0.00 | 0.00 | 64 | 1011.4 |
| 20260507173650 | 59 | 135 | 4.0 | 6.0 | 0.00 | 0.00 | 0.00 | 64 | 1011.5 |
| 20260507173147 | 60 | 136 | 6.0 | 7.0 | 0.00 | 0.00 | 0.00 | 65 | 1011.7 |
| 20260507172644 | 60 | 52 | 1.0 | 4.0 | 0.00 | 0.00 | 0.00 | 60 | 1011.8 |
| 20260507172141 | 60 | 146 | 5.0 | 7.0 | 0.00 | 0.00 | 0.00 | 63 | 1012.0 |
| 20260507171641 | 59 | 133 | 6.0 | 7.0 | 0.00 | 0.00 | 0.00 | 66 | 1011.8 |
| 20260507171138 | 60 | 89 | 3.0 | 6.0 | 0.00 | 0.00 | 0.00 | 64 | 1012.1 |
| 20260507170636 | 59 | 102 | 2.0 | 3.0 | 0.00 | 0.00 | 0.00 | 66 | 1011.9 |
| 20260507170133 | 60 | 69 | 3.0 | 7.0 | 0.00 | 0.00 | 0.00 | 65 | 1012.1 |
| 20260507165628 | 60 | 91 | 4.0 | 9.0 | 0.00 | 0.00 | 0.00 | 64 | 1012.3 |
| 20260507165125 | 60 | 110 | 5.0 | 9.0 | 0.00 | 0.00 | 0.00 | 66 | 1012.3 |
| 20260507164620 | 60 | 133 | 3.0 | 4.0 | 0.00 | 0.00 | 0.00 | 64 | 1012.2 |
| 20260507164117 | 59 | 94 | 1.0 | 2.0 | 0.00 | 0.00 | 0.00 | 63 | 1012.3 |
| 20260507163615 | 59 | 302 | 1.0 | 3.0 | 0.00 | 0.00 | 0.00 | 64 | 1012.4 |
| 20260507163113 | 58 | 148 | 2.0 | 3.0 | 0.00 | 0.00 | 0.00 | 65 | 1012.4 |
| 20260507162608 | 59 | 88 | 2.0 | 7.0 | 0.00 | 0.00 | 0.00 | 65 | 1012.4 |
| 20260507162105 | 59 | 87 | 2.0 | 3.0 | 0.00 | 0.00 | 0.00 | 65 | 1012.5 |
| 20260507161601 | 57 | 86 | 1.0 | 6.0 | 0.00 | 0.00 | 0.00 | 67 | 1012.6 |
| 20260507161058 | 57 | 79 | 3.0 | 4.0 | 0.00 | 0.00 | 0.00 | 66 | 1012.7 |
| 20260507160554 | 57 | 73 | 3.0 | 3.0 | 0.00 | 0.00 | 0.00 | 67 | 1012.7 |
| 20260507160050 | 57 | 81 | 2.0 | 6.0 | 0.00 | 0.00 | 0.00 | 69 | 1012.8 |
| 20260507155546 | 56 | 86 | 4.0 | 6.0 | 0.00 | 0.00 | 0.00 | 68 | 1012.9 |
| 20260507155043 | 56 | 115 | 3.0 | 8.0 | 0.00 | 0.00 | 0.00 | 69 | 1013.0 |
| 20260507154540 | 57 | 82 | 3.0 | 6.0 | 0.00 | 0.00 | 0.00 | 70 | 1013.0 |
| 20260507154037 | 57 | 103 | 1.0 | 4.0 | 0.00 | 0.00 | 0.00 | 70 | 1013.1 |
| 20260507153534 | 57 | 85 | 2.0 | 4.0 | 0.00 | 0.00 | 0.00 | 67 | 1013.0 |
| 20260507153030 | 58 | 77 | 2.0 | 7.0 | 0.00 | 0.00 | 0.00 | 69 | 1012.9 |
| 20260507152526 | 57 | 67 | 3.0 | 8.0 | 0.00 | 0.00 | 0.00 | 71 | 1013.0 |
| 20260507152022 | 58 | 71 | 4.0 | 10.0 | 0.00 | 0.00 | 0.00 | 67 | 1013.0 |
| 20260507151518 | 59 | 90 | 1.0 | 3.0 | 0.00 | 0.00 | 0.00 | 67 | 1013.1 |
| 20260507151016 | 56 | 98 | 6.0 | 8.0 | 0.00 | 0.00 | 0.00 | 73 | 1013.1 |
| 20260507150513 | 55 | 56 | 4.0 | 7.0 | 0.00 | 0.00 | 0.00 | 73 | 1013.1 |
| 20260507150009 | 57 | 79 | 2.0 | 4.0 | 0.00 | 0.00 | 0.00 | 71 | 1013.3 |
| 20260507145504 | 56 | 96 | 0.0 | 1.0 | 0.00 | 0.00 | 0.00 | 74 | 1013.3 |
| 20260507145002 | 55 | 101 | 4.0 | 6.0 | 0.00 | 0.00 | 0.00 | 73 | 1013.5 |
| 20260507144458 | 55 | 61 | 3.0 | 4.0 | 0.00 | 0.00 | 0.00 | 76 | 1013.4 |
| 20260507143955 | 55 | 87 | 3.0 | 6.0 | 0.00 | 0.00 | 0.00 | 74 | 1013.5 |
| 20260507143453 | 54 | 95 | 6.0 | 9.0 | 0.00 | 0.00 | 0.00 | 76 | 1013.5 |
| 20260507142950 | 54 | 38 | 1.0 | 8.0 | 0.00 | 0.00 | 0.00 | 75 | 1013.5 |
| 20260507142445 | 54 | 66 | 4.0 | 4.0 | 0.00 | 0.00 | 0.00 | 77 | 1013.6 |
| 20260507141943 | 54 | 68 | 5.0 | 7.0 | 0.00 | 0.00 | 0.00 | 78 | 1014.0 |
| 20260507141438 | 53 | 82 | 2.0 | 4.0 | 0.00 | 0.00 | 0.00 | 79 | 1013.7 |
| 20260507140935 | 53 | 99 | 1.0 | 4.0 | 0.00 | 0.00 | 0.00 | 78 | 1014.1 |
| 20260507140432 | 53 | 73 | 1.0 | 3.0 | 0.00 | 0.00 | 0.00 | 78 | 1014.1 |
| 20260507135930 | 53 | 54 | 1.0 | 2.0 | 0.00 | 0.00 | 0.00 | 78 | 1014.1 |
| 20260507135426 | 53 | 76 | 1.0 | 2.0 | 0.00 | 0.00 | 0.00 | 77 | 1014.2 |
| 20260507134924 | 53 | 78 | 0.0 | 1.0 | 0.00 | 0.00 | 0.00 | 78 | 1014.2 |
| 20260507134420 | 53 | 68 | 1.0 | 2.0 | 0.00 | 0.00 | 0.00 | 79 | 1014.1 |
| 20260507133916 | 53 | 69 | 1.0 | 2.0 | 0.00 | 0.00 | 0.00 | 77 | 1013.9 |
| 20260507133412 | 53 | 81 | 0.0 | 2.0 | 0.00 | 0.00 | 0.00 | 78 | 1014.2 |
| 20260507132911 | 53 | 92 | 0.0 | 1.0 | 0.00 | 0.00 | 0.00 | 79 | 1014.2 |
| 20260507132407 | 53 | 92 | 0.0 | 2.0 | 0.00 | 0.00 | 0.00 | 79 | 1014.1 |
| 20260507131905 | 52 | 79 | 1.0 | 2.0 | 0.00 | 0.00 | 0.00 | 79 | 1014.2 |
| 20260507131401 | 52 | 79 | 1.0 | 4.0 | 0.00 | 0.00 | 0.00 | 78 | 1014.2 |
| 20260507130858 | 52 | 85 | 1.0 | 2.0 | 0.00 | 0.00 | 0.00 | 78 | 1014.4 |
| 20260507130354 | 52 | 65 | 2.0 | 4.0 | 0.00 | 0.00 | 0.00 | 78 | 1014.3 |
| 20260507125853 | 52 | 70 | 1.0 | 3.0 | 0.00 | 0.00 | 0.00 | 78 | 1014.3 |
| 20260507125350 | 52 | 42 | 1.0 | 4.0 | 0.00 | 0.00 | 0.00 | 78 | 1014.5 |
| 20260507124848 | 52 | 86 | 1.0 | 3.0 | 0.00 | 0.00 | 0.00 | 78 | 1014.4 |
| 20260507124344 | 52 | 44 | 3.0 | 4.0 | 0.00 | 0.00 | 0.00 | 78 | 1014.2 |
| 20260507123843 | 52 | 92 | 2.0 | 3.0 | 0.00 | 0.00 | 0.00 | 78 | 1014.4 |
| 20260507123339 | 52 | 49 | 2.0 | 3.0 | 0.00 | 0.00 | 0.00 | 78 | 1014.5 |
| 20260507122836 | 52 | 58 | 2.0 | 4.0 | 0.00 | 0.00 | 0.00 | 78 | 1014.3 |
| 20260507122331 | 52 | 79 | 1.0 | 3.0 | 0.00 | 0.00 | 0.00 | 78 | 1014.3 |
| 20260507121828 | 52 | 75 | 2.0 | 3.0 | 0.00 | 0.00 | 0.00 | 78 | 1014.3 |
| 20260507121323 | 52 | 77 | 1.0 | 2.0 | 0.00 | 0.00 | 0.00 | 78 | 1014.0 |
| 20260507120820 | 52 | 88 | 0.0 | 1.0 | 0.00 | 0.00 | 0.00 | 79 | 1013.9 |
| 20260507120316 | 52 | 66 | 1.0 | 2.0 | 0.00 | 0.00 | 0.00 | 78 | 1013.6 |
| 20260507115813 | 52 | 69 | 1.0 | 3.0 | 0.00 | 0.00 | 0.00 | 78 | 1013.6 |
| 20260507115308 | 52 | 90 | 2.0 | 3.0 | 0.00 | 0.00 | 0.00 | 78 | 1013.9 |
| 20260507114804 | 52 | 70 | 1.0 | 2.0 | 0.00 | 0.00 | 0.00 | 78 | 1014.0 |
| 20260507114302 | 52 | 83 | 1.0 | 2.0 | 0.00 | 0.00 | 0.00 | 78 | 1014.0 |
| 20260507113759 | 52 | 56 | 1.0 | 2.0 | 0.00 | 0.00 | 0.00 | 78 | 1013.6 |
| 20260507113256 | 52 | 56 | 2.0 | 3.0 | 0.00 | 0.00 | 0.00 | 79 | 1013.7 |
| 20260507112754 | 52 | 53 | 1.0 | 3.0 | 0.00 | 0.00 | 0.00 | 79 | 1013.4 |
| 20260507112250 | 52 | 57 | 2.0 | 2.0 | 0.00 | 0.00 | 0.00 | 79 | 1013.5 |
| 20260507111748 | 52 | 65 | 1.0 | 2.0 | 0.00 | 0.00 | 0.00 | 80 | 1013.7 |
| 20260507111244 | 51 | 88 | 1.0 | 2.0 | 0.00 | 0.00 | 0.00 | 79 | 1013.6 |
| 20260507110740 | 51 | 67 | 1.0 | 3.0 | 0.00 | 0.00 | 0.00 | 79 | 1013.5 |
| 20260507110237 | 51 | 68 | 2.0 | 3.0 | 0.00 | 0.00 | 0.00 | 79 | 1013.4 |
| 20260507105734 | 51 | 53 | 2.0 | 3.0 | 0.00 | 0.00 | 0.00 | 80 | 1013.3 |
| 20260507105230 | 51 | 81 | 1.0 | 6.0 | 0.00 | 0.00 | 0.00 | 80 | 1013.2 |
| 20260507104727 | 51 | 85 | 1.0 | 2.0 | 0.00 | 0.00 | 0.00 | 81 | 1013.3 |
| 20260507104224 | 51 | 75 | 0.0 | 2.0 | 0.00 | 0.00 | 0.00 | 81 | 1013.2 |
| 20260507103720 | 51 | 76 | 1.0 | 2.0 | 0.00 | 0.00 | 0.00 | 80 | 1013.2 |
| 20260507103216 | 51 | 67 | 1.0 | 3.0 | 0.00 | 0.00 | 0.00 | 80 | 1013.1 |
| 20260507102713 | 51 | 71 | 2.0 | 3.0 | 0.00 | 0.00 | 0.00 | 80 | 1013.1 |
| 20260507102210 | 51 | 73 | 1.0 | 4.0 | 0.00 | 0.00 | 0.00 | 80 | 1013.3 |
| 20260507101706 | 51 | 86 | 2.0 | 4.0 | 0.00 | 0.00 | 0.00 | 81 | 1013.3 |
| 20260507101201 | 51 | 82 | 1.0 | 4.0 | 0.00 | 0.00 | 0.00 | 81 | 1013.3 |
| 20260507100659 | 51 | 65 | 1.0 | 3.0 | 0.00 | 0.00 | 0.00 | 81 | 1013.1 |
| 20260507100157 | 51 | 86 | 1.0 | 4.0 | 0.00 | 0.00 | 0.00 | 81 | 1013.3 |
| 20260507095655 | 51 | 73 | 1.0 | 3.0 | 0.00 | 0.00 | 0.00 | 81 | 1013.2 |
| 20260507095151 | 51 | 82 | 1.0 | 2.0 | 0.00 | 0.00 | 0.00 | 81 | 1013.2 |
| 20260507094647 | 51 | 85 | 1.0 | 4.0 | 0.00 | 0.00 | 0.00 | 81 | 1012.9 |
| 20260507094144 | 51 | 75 | 1.0 | 2.0 | 0.00 | 0.00 | 0.00 | 82 | 1013.1 |
| 20260507093642 | 51 | 74 | 2.0 | 3.0 | 0.00 | 0.00 | 0.00 | 82 | 1013.0 |
| 20260507093141 | 52 | 66 | 1.0 | 4.0 | 0.00 | 0.00 | 0.00 | 82 | 1013.0 |
| 20260507092637 | 52 | 63 | 2.0 | 3.0 | 0.00 | 0.00 | 0.00 | 83 | 1012.9 |
| 20260507092133 | 52 | 73 | 1.0 | 4.0 | 0.00 | 0.00 | 0.00 | 83 | 1013.1 |
| 20260507091630 | 52 | 68 | 2.0 | 3.0 | 0.00 | 0.00 | 0.00 | 84 | 1012.7 |
| 20260507091126 | 52 | 79 | 2.0 | 3.0 | 0.00 | 0.00 | 0.00 | 84 | 1012.8 |
| 20260507090622 | 52 | 48 | 2.0 | 3.0 | 0.00 | 0.00 | 0.00 | 84 | 1012.8 |
| 20260507090119 | 52 | 66 | 0.0 | 1.0 | 0.00 | 0.00 | 0.00 | 84 | 1013.0 |
| 20260507085616 | 52 | 79 | 0.0 | 2.0 | 0.00 | 0.00 | 0.00 | 84 | 1012.8 |
| 20260507085112 | 52 | 84 | 3.0 | 3.0 | 0.00 | 0.00 | 0.00 | 84 | 1012.9 |
| 20260507084609 | 52 | 55 | 2.0 | 4.0 | 0.00 | 0.00 | 0.00 | 84 | 1012.5 |
| 20260507084106 | 52 | 73 | 2.0 | 6.0 | 0.00 | 0.00 | 0.00 | 85 | 1012.7 |
| 20260507083603 | 52 | 43 | 3.0 | 3.0 | 0.00 | 0.00 | 0.00 | 84 | 1012.8 |
| 20260507083100 | 52 | 71 | 2.0 | 4.0 | 0.00 | 0.00 | 0.00 | 84 | 1012.5 |
| 20260507082555 | 52 | 51 | 4.0 | 6.0 | 0.00 | 0.00 | 0.00 | 84 | 1012.4 |
| 20260507082052 | 52 | 92 | 2.0 | 6.0 | 0.00 | 0.00 | 0.00 | 84 | 1012.6 |
| 20260507081548 | 52 | 82 | 1.0 | 3.0 | 0.00 | 0.00 | 0.00 | 84 | 1012.6 |
| 20260507081046 | 52 | 69 | 2.0 | 6.0 | 0.00 | 0.00 | 0.00 | 84 | 1012.7 |
| 20260507080541 | 52 | 48 | 4.0 | 7.0 | 0.00 | 0.00 | 0.00 | 83 | 1012.7 |
| 20260507080038 | 52 | 82 | 3.0 | 4.0 | 0.00 | 0.00 | 0.00 | 84 | 1012.9 |
| 20260507075533 | 53 | 82 | 2.0 | 6.0 | 0.00 | 0.00 | 0.00 | 84 | 1013.2 |
| 20260507075030 | 53 | 105 | 3.0 | 4.0 | 0.00 | 0.00 | 0.00 | 84 | 1012.9 |
| 20260507074526 | 53 | 75 | 3.0 | 4.0 | 0.00 | 0.00 | 0.00 | 84 | 1012.7 |
| 20260507074025 | 53 | 57 | 3.0 | 6.0 | 0.00 | 0.00 | 0.00 | 84 | 1012.7 |
| 20260507073521 | 53 | 76 | 2.0 | 7.0 | 0.00 | 0.00 | 0.00 | 84 | 1012.8 |
| 20260507073018 | 53 | 62 | 2.0 | 4.0 | 0.00 | 0.00 | 0.00 | 85 | 1012.7 |
| 20260507072515 | 53 | 81 | 2.0 | 4.0 | 0.00 | 0.00 | 0.00 | 84 | 1012.6 |
| 20260507072012 | 54 | 47 | 2.0 | 7.0 | 0.00 | 0.00 | 0.00 | 85 | 1012.7 |
| 20260507071509 | 54 | 83 | 2.0 | 3.0 | 0.00 | 0.00 | 0.00 | 85 | 1012.5 |
| 20260507071006 | 54 | 55 | 3.0 | 4.0 | 0.00 | 0.00 | 0.00 | 85 | 1012.3 |
| 20260507070503 | 55 | 90 | 2.0 | 7.0 | 0.00 | 0.00 | 0.00 | 85 | 1012.3 |
| 20260507070000 | 55 | 70 | 2.0 | 6.0 | 0.00 | 0.00 | 0.00 | 85 | 1012.2 |
| 20260507065456 | 55 | 91 | 2.0 | 3.0 | 0.00 | 0.00 | 0.00 | 85 | 1012.4 |
| 20260507064954 | 55 | 65 | 1.0 | 6.0 | 0.00 | 0.00 | 0.00 | 85 | 1012.2 |
| 20260507064452 | 55 | 66 | 3.0 | 4.0 | 0.00 | 0.00 | 0.00 | 85 | 1012.5 |
| 20260507063949 | 55 | 68 | 2.0 | 6.0 | 0.00 | 0.00 | 0.00 | 85 | 1012.3 |
| 20260507063446 | 55 | 88 | 1.0 | 4.0 | 0.00 | 0.00 | 0.00 | 86 | 1012.3 |
| 20260507062943 | 56 | 75 | 2.0 | 3.0 | 0.00 | 0.00 | 0.00 | 86 | 1012.5 |
| 20260507062441 | 56 | 78 | 2.0 | 4.0 | 0.00 | 0.00 | 0.00 | 85 | 1012.4 |
| 20260507061938 | 56 | 62 | 2.0 | 6.0 | 0.00 | 0.00 | 0.00 | 85 | 1012.1 |
| 20260507061436 | 56 | 75 | 2.0 | 6.0 | 0.00 | 0.00 | 0.00 | 86 | 1012.2 |
| 20260507060934 | 56 | 73 | 2.0 | 3.0 | 0.00 | 0.00 | 0.00 | 87 | 1012.3 |
| 20260507060430 | 56 | 85 | 3.0 | 4.0 | 0.00 | 0.00 | 0.00 | 87 | 1012.1 |
| 20260507055927 | 56 | 64 | 3.0 | 4.0 | 0.00 | 0.00 | 0.00 | 87 | 1012.4 |
| 20260507055422 | 57 | 86 | 2.0 | 6.0 | 0.00 | 0.00 | 0.00 | 87 | 1012.5 |
| 20260507054920 | 57 | 67 | 3.0 | 7.0 | 0.00 | 0.00 | 0.00 | 87 | 1012.7 |
| 20260507054415 | 57 | 66 | 1.0 | 2.0 | 0.00 | 0.00 | 0.00 | 87 | 1012.7 |
| 20260507053913 | 57 | 77 | 3.0 | 4.0 | 0.00 | 0.00 | 0.00 | 88 | 1012.7 |
| 20260507053410 | 57 | 89 | 4.0 | 6.0 | 0.00 | 0.00 | 0.00 | 88 | 1012.4 |
| 20260507052909 | 57 | 77 | 1.0 | 3.0 | 0.00 | 0.00 | 0.00 | 86 | 1012.7 |
| 20260507052406 | 58 | 67 | 2.0 | 4.0 | 0.00 | 0.00 | 0.00 | 86 | 1012.5 |
| 20260507051903 | 58 | 73 | 1.0 | 6.0 | 0.00 | 0.00 | 0.00 | 86 | 1012.3 |
| 20260507051401 | 58 | 46 | 2.0 | 3.0 | 0.00 | 0.00 | 0.00 | 86 | 1012.0 |
| 20260507050857 | 58 | 71 | 1.0 | 3.0 | 0.00 | 0.00 | 0.00 | 88 | 1012.3 |
| 20260507050354 | 58 | 87 | 1.0 | 3.0 | 0.00 | 0.00 | 0.00 | 90 | 1012.3 |
| 20260507045851 | 59 | 74 | 0.0 | 0.0 | 0.00 | 0.10 | 0.10 | 91 | 1012.4 |
| 20260507045347 | 59 | 74 | 0.0 | 1.0 | 0.00 | 0.10 | 0.10 | 90 | 1012.2 |
| 20260507044845 | 59 | 70 | 1.0 | 3.0 | 0.00 | 0.10 | 0.10 | 90 | 1012.1 |
| 20260507044341 | 59 | 78 | 1.0 | 2.0 | 0.00 | 0.10 | 0.10 | 89 | 1011.9 |
| 20260507043837 | 59 | 72 | 0.0 | 1.0 | 0.00 | 0.10 | 0.10 | 90 | 1012.0 |
| 20260507043334 | 59 | 72 | 2.0 | 2.0 | 0.00 | 0.10 | 0.10 | 92 | 1012.1 |
| 20260507042830 | 59 | 86 | 2.0 | 2.0 | 0.00 | 0.10 | 0.10 | 92 | 1011.9 |
| 20260507042325 | 59 | 72 | 0.0 | 1.0 | 0.00 | 0.10 | 0.10 | 92 | 1011.8 |
| 20260507041823 | 59 | 69 | 1.0 | 6.0 | 0.00 | 0.10 | 0.10 | 92 | 1011.3 |
| 20260507041319 | 59 | 94 | 3.0 | 4.0 | 0.00 | 0.10 | 0.10 | 92 | 1010.8 |
| 20260507040816 | 59 | 99 | 3.0 | 4.0 | 0.00 | 0.10 | 0.10 | 93 | 1010.6 |
| 20260507040312 | 59 | 88 | 2.0 | 3.0 | 0.00 | 0.10 | 0.10 | 93 | 1011.2 |
| 20260507035808 | 59 | 94 | 2.0 | 4.0 | 0.00 | 0.10 | 0.10 | 93 | 1011.4 |
| 20260507035306 | 60 | 91 | 1.0 | 1.0 | 0.00 | 0.10 | 0.10 | 93 | 1012.3 |
| 20260507034802 | 60 | 97 | 2.0 | 2.0 | 0.00 | 0.10 | 0.10 | 92 | 1012.4 |
| 20260507034258 | 60 | 87 | 0.0 | 0.0 | 0.00 | 0.10 | 0.10 | 91 | 1012.6 |
| 20260507033757 | 60 | 81 | 0.0 | 2.0 | 0.19 | 0.10 | 0.10 | 91 | 1012.3 |
| 20260507033254 | 61 | 94 | 1.0 | 1.0 | 0.24 | 0.10 | 0.10 | 90 | 1012.4 |
| 20260507032751 | 61 | 22 | 0.0 | 1.0 | 0.05 | 0.07 | 0.07 | 90 | 1012.6 |
| 20260507032247 | 61 | 24 | 2.0 | 2.0 | 0.00 | 0.06 | 0.06 | 90 | 1012.7 |
| 20260507031743 | 61 | 75 | 0.0 | 0.0 | 0.00 | 0.06 | 0.06 | 89 | 1012.7 |
| 20260507031241 | 61 | 306 | 0.0 | 1.0 | 0.00 | 0.06 | 0.06 | 89 | 1012.3 |
| 20260507030737 | 61 | 309 | 1.0 | 3.0 | 0.00 | 0.06 | 0.06 | 89 | 1012.1 |
| 20260507030235 | 61 | 74 | 0.0 | 3.0 | 0.00 | 0.06 | 0.06 | 89 | 1011.7 |
| 20260507025732 | 61 | 70 | 0.0 | 1.0 | 0.00 | 0.06 | 0.06 | 89 | 1012.1 |
| 20260507025229 | 61 | 70 | 0.0 | 0.0 | 0.00 | 0.06 | 0.06 | 89 | 1012.1 |
| 20260507024727 | 61 | 73 | 1.0 | 2.0 | 0.00 | 0.06 | 0.06 | 88 | 1011.8 |
| 20260507024224 | 61 | 73 | 0.0 | 1.0 | 0.00 | 0.06 | 0.06 | 89 | 1012.2 |
| 20260507023720 | 61 | 73 | 0.0 | 0.0 | 0.00 | 0.06 | 0.06 | 89 | 1012.2 |
| 20260507023217 | 61 | 73 | 0.0 | 1.0 | 0.00 | 0.06 | 0.06 | 89 | 1012.3 |
| 20260507022714 | 61 | 73 | 0.0 | 0.0 | 0.00 | 0.06 | 0.06 | 89 | 1012.2 |
| 20260507022210 | 61 | 73 | 1.0 | 2.0 | 0.00 | 0.06 | 0.06 | 88 | 1012.0 |
| 20260507021706 | 61 | 75 | 0.0 | 0.0 | 0.00 | 0.06 | 0.06 | 87 | 1011.8 |
| 20260507021201 | 62 | 78 | 1.0 | 1.0 | 0.00 | 0.06 | 0.06 | 87 | 1011.5 |
| 20260507020701 | 62 | 95 | 2.0 | 4.0 | 0.00 | 0.06 | 0.06 | 87 | 1011.7 |
| 20260507020156 | 62 | 92 | 2.0 | 2.0 | 0.07 | 0.06 | 0.06 | 86 | 1011.1 |
| 20260507015654 | 62 | 87 | 1.0 | 2.0 | 0.07 | 0.06 | 0.06 | 84 | 1011.7 |
| 20260507015151 | 62 | 80 | 0.0 | 1.0 | 0.00 | 0.05 | 0.05 | 84 | 1011.8 |
| 20260507014648 | 62 | 93 | 1.0 | 1.0 | 0.00 | 0.05 | 0.05 | 85 | 1011.7 |
| 20260507014144 | 62 | 51 | 0.0 | 1.0 | 0.00 | 0.05 | 0.05 | 84 | 1011.8 |
| 20260507013641 | 63 | 51 | 1.0 | 2.0 | 0.00 | 0.05 | 0.05 | 83 | 1011.5 |
| 20260507013138 | 63 | 70 | 1.0 | 1.0 | 0.00 | 0.05 | 0.05 | 82 | 1011.5 |
| 20260507012635 | 63 | 73 | 1.0 | 2.0 | 0.00 | 0.05 | 0.05 | 82 | 1011.4 |
| 20260507012130 | 63 | 78 | 0.0 | 1.0 | 0.00 | 0.05 | 0.05 | 83 | 1011.0 |
| 20260507011629 | 63 | 78 | 1.0 | 6.0 | 0.00 | 0.05 | 0.05 | 83 | 1010.8 |
| 20260507011125 | 63 | 92 | 1.0 | 3.0 | 0.00 | 0.05 | 0.05 | 83 | 1011.0 |
| 20260507010620 | 64 | 90 | 1.0 | 2.0 | 0.00 | 0.05 | 0.05 | 83 | 1010.9 |
| 20260507010116 | 64 | 99 | 1.0 | 3.0 | 0.00 | 0.05 | 0.05 | 82 | 1011.0 |
| 20260507005614 | 65 | 66 | 2.0 | 2.0 | 0.00 | 0.05 | 0.05 | 80 | 1011.3 |
| 20260507005109 | 65 | 66 | 0.0 | 0.0 | 0.00 | 0.05 | 0.05 | 80 | 1011.5 |
| 20260507004607 | 65 | 66 | 0.0 | 0.0 | 0.00 | 0.05 | 0.05 | 80 | 1011.4 |
| 20260507004104 | 65 | 66 | 0.0 | 2.0 | 0.00 | 0.05 | 0.05 | 80 | 1011.5 |
| 20260507003600 | 66 | 30 | 1.0 | 1.0 | 0.00 | 0.05 | 0.05 | 80 | 1011.5 |
| 20260507003055 | 66 | 32 | 1.0 | 2.0 | 0.00 | 0.05 | 0.05 | 80 | 1011.4 |
| 20260507002552 | 66 | 346 | 0.0 | 1.0 | 0.00 | 0.05 | 0.05 | 79 | 1011.4 |
| 20260507002047 | 66 | 326 | 2.0 | 2.0 | 0.00 | 0.05 | 0.05 | 79 | 1011.2 |
| 20260507001544 | 67 | 336 | 2.0 | 3.0 | 0.00 | 0.05 | 0.05 | 78 | 1011.3 |
| 20260507001042 | 67 | 43 | 1.0 | 2.0 | 0.00 | 0.05 | 0.05 | 79 | 1011.1 |
| 20260507000538 | 67 | 53 | 0.0 | 1.0 | 0.00 | 0.05 | 0.05 | 79 | 1011.1 |
| 20260507000033 | 67 | 46 | 1.0 | 2.0 | 0.00 | 0.05 | 0.05 | 79 | 1011.1 |
| 20260506235531 | 67 | 47 | 0.0 | 0.0 | 0.00 | 0.05 | 0.05 | 80 | 1011.0 |
| 20260506235027 | 67 | 89 | 0.0 | 0.0 | 0.00 | 0.05 | 0.05 | 79 | 1011.1 |
| 20260506234525 | 68 | 89 | 0.0 | 3.0 | 0.00 | 0.05 | 0.05 | 79 | 1010.9 |
| 20260506234022 | 68 | 104 | 2.0 | 3.0 | 0.00 | 0.05 | 0.05 | 79 | 1011.1 |
| 20260506233518 | 68 | 33 | 0.0 | 0.0 | 0.00 | 0.05 | 0.05 | 77 | 1010.9 |
| 20260506233015 | 68 | 33 | 0.0 | 0.0 | 0.00 | 0.05 | 0.05 | 76 | 1010.7 |
| 20260506232511 | 68 | 33 | 0.0 | 0.0 | 0.00 | 0.05 | 0.05 | 76 | 1010.4 |
| 20260506232007 | 68 | 33 | 0.0 | 1.0 | 0.00 | 0.05 | 0.05 | 76 | 1010.7 |